"Date","Time","Latitude","Longitude","Speed","Course","Altitude","Satellites","GPS quality","C1","0.25um","0.28um","0.3um","0.35um","0.4um","0.45um","0.5um","0.58um","C2","0.65um","0.7um","0.8um","1.0um","1.3um","1.6um","2.0um","2.5um","C3","3.0um","3.5um","4.0um","5.0um","6.5um","7.5um","8.5um","10.0um","C4","12.5um","15.0um","17.5um","20.0um","25.0um","30.0um","32.0um",">32um"
09/04/11,14:25:29,38 43.3290 N,009 21.2432 W,79.10,343.67,95.0,10,1,N6,124,121,118,117,115,115,114,113,N6,112,110,109,108,106,101,93,85,n6,65,37,21,8,0,0,0,0,n6,0,0,0,0,0,0,0,0
09/04/11,14:25:36,38 43.5053 N,009 21.3063 W,99.81,344.35,106.2,10,1,N7,172,169,167,165,164,163,163,162,N7,161,159,158,154,150,147,142,135,n7,122,92,74,64,16,0,0,0,n7,0,0,0,0,0,0,0,0
09/04/11,14:25:42,38 43.6678 N,009 21.3663 W,101.01,344.14,148.7,10,1,N8,182,178,175,174,173,172,171,171,N8,169,167,166,163,160,157,154,139,n8,98,73,67,48,16,0,0,0,n8,0,0,0,0,0,0,0,0
09/04/11,14:25:48,38 43.8322 N,009 21.4228 W,101.93,345.57,193.8,10,1,N9,104,100,97,96,94,94,93,93,N9,92,90,89,87,85,82,77,68,n9,67,60,45,40,16,0,0,0,n9,0,0,0,0,0,0,0,0
09/04/11,14:25:53,38 43.9717 N,009 21.4646 W,102.37,346.90,233.1,10,1,N0,107,104,101,100,99,98,98,97,N0,95,94,93,91,88,86,82,73,n0,56,56,50,40,16,0,0,0,n0,0,0,0,0,0,0,0,0
09/04/11,14:25:59,38 44.1375 N,009 21.5127 W,101.21,347.98,281.9,10,1,N1,138,134,132,130,129,128,128,127,N1,126,124,123,122,117,112,104,92,n1,58,40,34,24,16,0,0,0,n1,0,0,0,0,0,0,0,0
09/04/11,14:26:06,38 44.3342 N,009 21.5663 W,104.62,348.20,326.3,10,1,N2,146,143,140,139,138,137,136,136,N2,134,132,130,128,124,117,106,96,n2,73,53,37,24,0,0,0,0,n2,0,0,0,0,0,0,0,0
09/04/11,14:26:12,38 44.5158 N,009 21.6116 W,112.43,349.13,356.5,10,1,N3,97,93,89,88,87,85,84,84,N3,81,79,79,77,74,71,60,50,n3,47,37,28,24,0,0,0,0,n3,0,0,0,0,0,0,0,0
09/04/11,14:26:18,38 44.7031 N,009 21.6579 W,114.21,348.96,399.7,10,1,N4,153,150,147,146,145,144,143,142,N4,140,137,136,135,131,126,122,109,n4,71,35,20,16,0,0,0,0,n4,0,0,0,0,0,0,0,0
09/04/11,14:26:23,38 44.8574 N,009 21.7025 W,112.90,347.02,439.4,10,1,N5,126,123,120,118,116,115,114,113,N5,112,110,108,105,99,95,91,74,n5,54,29,20,16,0,0,0,0,n5,0,0,0,0,0,0,0,0
09/04/11,14:26:29,38 45.0398 N,009 21.7613 W,112.14,345.55,481.9,10,1,N6,144,140,137,135,134,133,132,131,N6,130,128,127,124,121,116,108,97,n6,83,56,38,24,16,0,0,0,n6,0,0,0,0,0,0,0,0
09/04/11,14:26:36,38 45.2521 N,009 21.8305 W,112.71,345.64,528.8,10,1,N7,90,86,83,82,81,80,79,78,N7,76,75,74,73,68,64,54,46,n7,30,12,0,0,0,0,0,0,n7,0,0,0,0,0,0,0,0
09/04/11,14:26:42,38 45.4370 N,009 21.8953 W,115.64,344.41,561.9,10,1,N8,109,106,104,102,101,100,99,98,N8,96,95,94,91,88,81,73,61,n8,54,51,33,24,0,0,0,0,n8,0,0,0,0,0,0,0,0
09/04/11,14:26:48,38 45.6244 N,009 21.9623 W,116.57,344.56,598.4,10,1,N9,138,134,131,129,128,127,126,125,N9,124,122,121,117,113,109,99,92,n9,58,29,20,16,0,0,0,0,n9,0,0,0,0,0,0,0,0
09/04/11,14:26:53,38 45.7803 N,009 22.0190 W,116.18,344.22,634.5,10,1,N0,90,88,85,84,83,82,81,81,N0,80,79,78,76,72,70,63,55,n0,40,26,8,8,0,0,0,0,n0,0,0,0,0,0,0,0,0
09/04/11,14:26:59,38 45.9607 N,009 22.1086 W,115.81,334.60,674.5,10,1,N1,52,49,48,47,46,45,45,45,N1,44,43,43,41,39,38,36,32,n1,26,17,8,8,0,0,0,0,n1,0,0,0,0,0,0,0,0
09/04/11,14:27:06,38 46.1396 N,009 22.2874 W,117.56,315.18,714.0,10,1,N2,81,79,76,75,74,74,73,72,N2,70,69,67,65,63,60,53,47,n2,25,21,9,0,0,0,0,0,n2,0,0,0,0,0,0,0,0
09/04/11,14:27:12,38 46.2542 N,009 22.4917 W,117.56,302.09,752.1,10,1,N3,547,543,540,538,537,536,534,533,N3,530,525,522,516,508,493,467,424,n3,270,185,130,98,50,0,0,0,n3,0,0,0,0,0,0,0,0
09/04/11,14:27:18,38 46.3302 N,009 22.7224 W,117.51,288.52,794.5,10,1,N4,418,414,411,409,408,406,405,403,N4,399,393,390,383,378,363,329,292,n4,125,35,17,8,0,0,0,0,n4,0,0,0,0,0,0,0,0
09/04/11,14:27:23,38 46.3635 N,009 22.9292 W,118.66,279.49,830.3,10,1,N5,205,202,201,200,199,198,198,197,N5,196,194,193,192,190,188,182,175,n5,175,162,138,114,66,0,0,0,n5,0,0,0,0,0,0,0,0
09/04/11,14:27:29,38 46.3640 N,009 23.1841 W,119.91,266.03,873.9,10,1,N6,1590,1586,1583,1581,1579,1577,1575,1574,N6,1571,1567,1565,1562,1556,1552,1531,1519,n6,1511,1377,1124,938,481,30,0,0,n6,0,0,0,0,0,0,0,0
09/04/11,14:27:36,38 46.2927 N,009 23.4826 W,129.11,245.95,905.7,10,1,N7,527,525,523,523,522,521,520,520,N7,518,517,517,516,514,512,512,510,n7,510,510,510,413,180,30,0,0,n7,0,0,0,0,0,0,0,0
09/04/11,14:27:42,38 46.1643 N,009 23.7178 W,135.65,230.94,934.9,10,1,N8,7,6,5,5,5,5,5,5,N8,4,4,3,3,2,2,0,0,n8,0,0,0,0,0,0,0,0,n8,0,0,0,0,0,0,0,0
09/04/11,14:27:48,38 45.9862 N,009 23.9066 W,138.52,215.25,978.6,10,1,N9,32,32,32,32,32,32,32,32,N9,31,31,30,29,29,28,26,24,n9,10,0,0,0,0,0,0,0,n9,0,0,0,0,0,0,0,0
09/04/11,14:27:53,38 45.8126 N,009 24.0213 W,139.64,205.36,1023.0,10,1,N0,3,3,3,3,3,2,2,2,N0,2,2,2,2,2,2,1,0,n0,0,0,0,0,0,0,0,0,n0,0,0,0,0,0,0,0,0
09/04/11,14:27:59,38 45.5943 N,009 24.1256 W,137.77,199.29,1085.0,10,1,N1,0,0,0,0,0,0,0,0,N1,0,0,0,0,0,0,0,0,n1,0,0,0,0,0,0,0,0,n1,0,0,0,0,0,0,0,0
09/04/11,14:28:06,38 45.3430 N,009 24.2252 W,131.83,197.55,1165.9,10,1,N2,0,0,0,0,0,0,0,0,N2,0,0,0,0,0,0,0,0,n2,0,0,0,0,0,0,0,0,n2,0,0,0,0,0,0,0,0
09/04/11,14:28:12,38 45.1362 N,009 24.3065 W,127.76,197.14,1229.9,10,1,N3,0,0,0,0,0,0,0,0,N3,0,0,0,0,0,0,0,0,n3,0,0,0,0,0,0,0,0,n3,0,0,0,0,0,0,0,0
09/04/11,14:28:18,38 44.9270 N,009 24.3736 W,129.66,192.04,1280.3,10,1,N4,0,0,0,0,0,0,0,0,N4,0,0,0,0,0,0,0,0,n4,0,0,0,0,0,0,0,0,n4,0,0,0,0,0,0,0,0
09/04/11,14:28:23,38 44.7433 N,009 24.3905 W,132.97,180.95,1316.9,10,1,N5,1,1,1,1,1,1,1,1,N5,1,1,1,1,1,1,0,0,n5,0,0,0,0,0,0,0,0,n5,0,0,0,0,0,0,0,0
09/04/11,14:28:29,38 44.5193 N,009 24.3463 W,136.56,167.05,1358.0,10,1,N6,3,3,2,2,2,2,2,2,N6,2,2,2,2,1,1,1,0,n6,0,0,0,0,0,0,0,0,n6,0,0,0,0,0,0,0,0
09/04/11,14:28:36,38 44.2692 N,009 24.2178 W,137.91,154.91,1406.2,10,1,N7,18,18,18,18,18,17,17,17,N7,17,17,17,17,17,17,17,17,n7,8,8,8,8,8,0,0,0,n7,0,0,0,0,0,0,0,0
09/04/11,14:28:42,38 44.0613 N,009 24.0966 W,135.14,156.48,1452.0,10,1,N8,2,2,2,2,2,2,2,2,N8,2,1,1,1,1,1,0,0,n8,0,0,0,0,0,0,0,0,n8,0,0,0,0,0,0,0,0
09/04/11,14:28:48,38 43.8522 N,009 23.9925 W,133.51,159.53,1496.1,10,1,N9,7,6,6,5,5,5,4,4,N9,4,4,4,3,3,2,1,0,n9,0,0,0,0,0,0,0,0,n9,0,0,0,0,0,0,0,0
09/04/11,14:28:53,38 43.6778 N,009 23.9095 W,133.50,159.79,1530.3,10,1,N0,17,16,16,15,15,15,15,14,N0,14,14,14,14,14,14,14,14,n0,10,0,0,0,0,0,0,0,n0,0,0,0,0,0,0,0,0
09/04/11,14:28:59,38 43.4657 N,009 23.8105 W,135.83,160.16,1564.9,10,1,N1,6,6,5,5,4,4,4,4,N1,4,3,3,3,3,2,1,0,n1,0,0,0,0,0,0,0,0,n1,0,0,0,0,0,0,0,0
09/04/11,14:29:06,38 43.2109 N,009 23.6934 W,140.28,160.40,1597.7,10,1,N2,3,3,2,2,2,1,1,1,N2,1,1,1,0,0,0,0,0,n2,0,0,0,0,0,0,0,0,n2,0,0,0,0,0,0,0,0
09/04/11,14:29:12,38 42.9889 N,009 23.5905 W,141.42,160.07,1632.0,10,1,N3,7,7,6,6,6,6,6,5,N3,5,5,5,5,5,5,5,5,n3,0,0,0,0,0,0,0,0,n3,0,0,0,0,0,0,0,0
09/04/11,14:29:18,38 42.7702 N,009 23.4847 W,139.25,158.90,1675.8,10,1,N4,2,2,2,2,1,1,1,1,N4,1,1,1,1,0,0,0,0,n4,0,0,0,0,0,0,0,0,n4,0,0,0,0,0,0,0,0
09/04/11,14:29:23,38 42.5909 N,009 23.3971 W,137.50,159.52,1712.0,10,1,N5,64,64,63,63,63,62,62,62,N5,61,61,60,59,59,58,54,51,n5,25,0,0,0,0,0,0,0,n5,0,0,0,0,0,0,0,0
09/04/11,14:29:29,38 42.3773 N,009 23.2961 W,135.88,159.69,1754.5,10,1,N6,0,0,0,0,0,0,0,0,N6,0,0,0,0,0,0,0,0,n6,0,0,0,0,0,0,0,0,n6,0,0,0,0,0,0,0,0
09/04/11,14:29:36,38 42.1320 N,009 23.1767 W,134.47,158.87,1801.8,10,1,N7,0,0,0,0,0,0,0,0,N7,0,0,0,0,0,0,0,0,n7,0,0,0,0,0,0,0,0,n7,0,0,0,0,0,0,0,0
09/04/11,14:29:42,38 41.9211 N,009 23.0725 W,136.04,158.87,1833.3,10,1,N8,0,0,0,0,0,0,0,0,N8,0,0,0,0,0,0,0,0,n8,0,0,0,0,0,0,0,0,n8,0,0,0,0,0,0,0,0
09/04/11,14:29:48,38 41.7063 N,009 22.9678 W,138.62,159.23,1860.5,10,1,N9,22,22,22,22,22,22,22,22,N9,22,22,22,22,22,22,22,22,n9,20,16,16,16,16,0,0,0,n9,0,0,0,0,0,0,0,0
09/04/11,14:29:53,38 41.5245 N,009 22.8795 W,140.30,159.09,1884.5,10,1,N0,0,0,0,0,0,0,0,0,N0,0,0,0,0,0,0,0,0,n0,0,0,0,0,0,0,0,0,n0,0,0,0,0,0,0,0,0
09/04/11,14:29:59,38 41.3045 N,009 22.7740 W,141.03,159.68,1916.6,10,1,N1,9,9,9,9,8,8,8,8,N1,8,7,7,7,6,6,6,0,n1,0,0,0,0,0,0,0,0,n1,0,0,0,0,0,0,0,0
09/04/11,14:30:06,38 41.0466 N,009 22.6563 W,140.45,160.51,1959.2,10,1,N2,119,118,117,117,117,116,115,115,N2,114,113,113,111,109,106,104,96,n2,79,47,35,8,0,0,0,0,n2,0,0,0,0,0,0,0,0
09/04/11,14:30:12,38 40.8264 N,009 22.5569 W,139.86,160.52,1996.2,08,1,N3,201,200,200,200,199,198,198,198,N3,197,195,195,193,190,187,178,166,n3,142,103,79,56,0,0,0,0,n3,0,0,0,0,0,0,0,0
09/04/11,14:30:18,38 40.6066 N,009 22.4585 W,139.56,160.65,2031.7,08,1,N4,96,95,95,95,95,94,94,93,N4,93,92,91,90,89,88,81,78,n4,71,62,41,32,0,0,0,0,n4,0,0,0,0,0,0,0,0
09/04/11,14:30:23,38 40.4237 N,009 22.3749 W,140.05,160.13,2058.8,07,1,N5,43,43,42,42,42,42,41,41,N5,40,39,38,37,37,34,33,31,n5,20,12,0,0,0,0,0,0,n5,0,0,0,0,0,0,0,0
09/04/11,14:30:29,38 40.2028 N,009 22.2751 W,140.66,161.04,2090.0,06,1,N6,22,21,21,21,20,20,20,19,N6,19,18,18,17,17,17,13,11,n6,11,6,0,0,0,0,0,0,n6,0,0,0,0,0,0,0,0
09/04/11,14:30:36,38 39.9470 N,009 22.1553 W,139.54,158.69,2133.9,07,1,N7,4,4,3,3,3,3,2,2,N7,2,2,2,2,1,1,0,0,n7,0,0,0,0,0,0,0,0,n7,0,0,0,0,0,0,0,0
09/04/11,14:30:42,38 39.7303 N,009 22.0471 W,139.80,158.79,2166.8,09,1,N8,2,1,1,1,1,1,0,0,N8,0,0,0,0,0,0,0,0,n8,0,0,0,0,0,0,0,0,n8,0,0,0,0,0,0,0,0
09/04/11,14:30:48,38 39.5105 N,009 21.9399 W,141.73,159.11,2193.1,10,1,N9,4,4,3,3,3,3,2,2,N9,2,2,2,2,1,1,1,0,n9,0,0,0,0,0,0,0,0,n9,0,0,0,0,0,0,0,0
09/04/11,14:30:53,38 39.3243 N,009 21.8501 W,143.72,159.39,2212.8,10,1,N0,6,6,5,5,5,5,5,5,N0,5,5,5,5,5,5,5,5,n0,0,0,0,0,0,0,0,0,n0,0,0,0,0,0,0,0,0
09/04/11,14:30:59,38 39.0982 N,009 21.7459 W,144.09,160.53,2242.0,10,1,N1,3,3,3,2,2,2,2,2,N1,2,1,1,1,1,1,1,0,n1,0,0,0,0,0,0,0,0,n1,0,0,0,0,0,0,0,0
09/04/11,14:31:06,38 38.8340 N,009 21.6366 W,141.79,162.97,2285.2,10,1,N2,7,6,6,5,5,5,5,5,N2,5,5,5,5,5,5,5,5,n2,0,0,0,0,0,0,0,0,n2,0,0,0,0,0,0,0,0
09/04/11,14:31:12,38 38.6091 N,009 21.5529 W,139.96,163.86,2324.1,10,1,N3,10,9,9,8,8,8,7,7,N3,7,7,7,7,7,7,7,7,n3,4,0,0,0,0,0,0,0,n3,0,0,0,0,0,0,0,0
09/04/11,14:31:18,38 38.3850 N,009 21.4717 W,139.81,164.00,2358.7,10,1,N4,7,7,6,6,6,6,6,6,N4,5,5,5,5,5,5,5,5,n4,0,0,0,0,0,0,0,0,n4,0,0,0,0,0,0,0,0
09/04/11,14:31:23,38 38.1987 N,009 21.3958 W,141.46,160.92,2384.4,10,1,N5,3,2,2,1,1,1,1,1,N5,0,0,0,0,0,0,0,0,n5,0,0,0,0,0,0,0,0,n5,0,0,0,0,0,0,0,0
09/04/11,14:31:29,38 37.9795 N,009 21.2687 W,145.62,153.83,2406.4,10,1,N6,7,7,6,6,6,6,6,6,N6,5,5,5,5,5,5,5,5,n6,0,0,0,0,0,0,0,0,n6,0,0,0,0,0,0,0,0
09/04/11,14:31:36,38 37.7236 N,009 21.1107 W,145.50,154.69,2443.2,10,1,N7,1,0,0,0,0,0,0,0,N7,0,0,0,0,0,0,0,0,n7,0,0,0,0,0,0,0,0,n7,0,0,0,0,0,0,0,0
09/04/11,14:31:42,38 37.5069 N,009 20.9871 W,140.69,156.33,2490.4,10,1,N8,1,1,1,1,1,1,1,0,N8,0,0,0,0,0,0,0,0,n8,0,0,0,0,0,0,0,0,n8,0,0,0,0,0,0,0,0
09/04/11,14:31:48,38 37.2964 N,009 20.8679 W,137.16,156.06,2535.1,10,1,N9,8,8,8,8,7,7,7,7,N9,7,7,7,7,7,7,7,6,n9,1,1,0,0,0,0,0,0,n9,0,0,0,0,0,0,0,0
09/04/11,14:31:53,38 37.1223 N,009 20.7714 W,136.52,156.68,2564.6,10,1,N0,2,2,2,1,1,1,1,1,N0,1,0,0,0,0,0,0,0,n0,0,0,0,0,0,0,0,0,n0,0,0,0,0,0,0,0,0
09/04/11,14:31:59,38 36.9112 N,009 20.6577 W,137.88,157.08,2593.2,10,1,N1,1,1,1,0,0,0,0,0,N1,0,0,0,0,0,0,0,0,n1,0,0,0,0,0,0,0,0,n1,0,0,0,0,0,0,0,0
09/04/11,14:32:06,38 36.6612 N,009 20.5225 W,140.66,157.09,2621.4,10,1,N2,1,1,0,0,0,0,0,0,N2,0,0,0,0,0,0,0,0,n2,0,0,0,0,0,0,0,0,n2,0,0,0,0,0,0,0,0
09/04/11,14:32:12,38 36.4414 N,009 20.4082 W,143.09,157.99,2644.9,10,1,N3,16,15,15,14,14,14,14,14,N3,14,14,13,13,13,13,13,13,n3,11,8,8,8,0,0,0,0,n3,0,0,0,0,0,0,0,0
09/04/11,14:32:18,38 36.2211 N,009 20.2892 W,143.30,156.43,2675.3,10,1,N4,2,1,1,1,1,0,0,0,N4,0,0,0,0,0,0,0,0,n4,0,0,0,0,0,0,0,0,n4,0,0,0,0,0,0,0,0
09/04/11,14:32:23,38 36.0397 N,009 20.1849 W,143.23,155.46,2701.5,10,1,N5,1,1,1,0,0,0,0,0,N5,0,0,0,0,0,0,0,0,n5,0,0,0,0,0,0,0,0,n5,0,0,0,0,0,0,0,0
09/04/11,14:32:29,38 35.8206 N,009 20.0597 W,144.51,156.13,2727.4,10,1,N6,2,1,1,1,0,0,0,0,N6,0,0,0,0,0,0,0,0,n6,0,0,0,0,0,0,0,0,n6,0,0,0,0,0,0,0,0
09/04/11,14:32:36,38 35.5621 N,009 19.9135 W,145.64,156.14,2758.7,10,1,N7,1,1,0,0,0,0,0,0,N7,0,0,0,0,0,0,0,0,n7,0,0,0,0,0,0,0,0,n7,0,0,0,0,0,0,0,0
09/04/11,14:32:42,38 35.3380 N,009 19.7934 W,145.79,157.70,2788.2,10,1,N8,3,2,2,2,2,2,2,1,N8,1,1,1,1,1,1,1,0,n8,0,0,0,0,0,0,0,0,n8,0,0,0,0,0,0,0,0
09/04/11,14:32:48,38 35.1123 N,009 19.6809 W,145.00,159.01,2821.8,10,1,N9,2,2,1,1,1,1,1,1,N9,1,1,1,1,1,1,0,0,n9,0,0,0,0,0,0,0,0,n9,0,0,0,0,0,0,0,0
09/04/11,14:32:53,38 34.9250 N,009 19.5906 W,143.69,159.24,2852.8,10,1,N0,3,2,2,2,2,1,1,1,N0,1,1,1,1,0,0,0,0,n0,0,0,0,0,0,0,0,0,n0,0,0,0,0,0,0,0,0
09/04/11,14:32:59,38 34.7033 N,009 19.4795 W,142.60,157.99,2888.6,10,1,N1,4,3,3,3,2,2,2,2,N1,2,2,2,1,1,1,1,0,n1,0,0,0,0,0,0,0,0,n1,0,0,0,0,0,0,0,0
09/04/11,14:33:06,38 34.4444 N,009 19.3486 W,143.89,158.85,2918.8,10,1,N2,3,3,3,3,2,2,2,2,N2,2,2,2,2,1,1,1,0,n2,0,0,0,0,0,0,0,0,n2,0,0,0,0,0,0,0,0
09/04/11,14:33:12,38 34.2171 N,009 19.2340 W,148.28,157.07,2935.6,10,1,N3,19,19,18,18,18,18,17,17,N3,17,17,17,17,17,17,17,17,n3,12,4,4,0,0,0,0,0,n3,0,0,0,0,0,0,0,0
09/04/11,14:33:18,38 34.0006 N,009 19.0678 W,152.93,144.68,2950.4,10,1,N4,1,1,1,0,0,0,0,0,N4,0,0,0,0,0,0,0,0,n4,0,0,0,0,0,0,0,0,n4,0,0,0,0,0,0,0,0
09/04/11,14:33:23,38 33.8432 N,009 18.8835 W,154.18,134.69,2968.6,10,1,N5,2,2,1,1,1,0,0,0,N5,0,0,0,0,0,0,0,0,n5,0,0,0,0,0,0,0,0,n5,0,0,0,0,0,0,0,0
09/04/11,14:33:29,38 33.6896 N,009 18.6182 W,155.74,122.71,2989.4,10,1,N6,2,2,1,1,1,1,1,0,N6,0,0,0,0,0,0,0,0,n6,0,0,0,0,0,0,0,0,n6,0,0,0,0,0,0,0,0
09/04/11,14:33:36,38 33.5640 N,009 18.2672 W,155.46,111.04,3017.1,10,1,N7,16,16,15,15,15,15,14,14,N7,14,14,14,14,14,13,13,13,n7,11,8,8,8,0,0,0,0,n7,0,0,0,0,0,0,0,0
09/04/11,14:33:42,38 33.4898 N,009 17.9502 W,155.97,105.38,3048.7,10,1,N8,2,2,1,1,1,1,1,1,N8,1,1,0,0,0,0,0,0,n8,0,0,0,0,0,0,0,0,n8,0,0,0,0,0,0,0,0
09/04/11,14:33:48,38 33.4368 N,009 17.6402 W,147.20,102.10,3098.3,10,1,N9,2,1,1,0,0,0,0,0,N9,0,0,0,0,0,0,0,0,n9,0,0,0,0,0,0,0,0,n9,0,0,0,0,0,0,0,0
09/04/11,14:33:53,38 33.4002 N,009 17.3884 W,143.48,100.50,3136.9,10,1,N0,4,4,4,3,3,3,3,3,N0,3,3,3,2,2,2,1,0,n0,0,0,0,0,0,0,0,0,n0,0,0,0,0,0,0,0,0
09/04/11,14:33:59,38 33.3617 N,009 17.0927 W,139.99,99.46,3180.6,10,1,N1,2,1,1,1,0,0,0,0,N1,0,0,0,0,0,0,0,0,n1,0,0,0,0,0,0,0,0,n1,0,0,0,0,0,0,0,0
09/04/11,14:34:06,38 33.3207 N,009 16.7514 W,139.73,98.77,3219.5,10,1,N2,4,3,2,2,2,2,1,1,N2,1,1,1,1,1,1,0,0,n2,0,0,0,0,0,0,0,0,n2,0,0,0,0,0,0,0,0
09/04/11,14:34:12,38 33.2879 N,009 16.4561 W,140.59,98.03,3248.2,10,1,N3,3,3,2,2,1,1,1,1,N3,1,0,0,0,0,0,0,0,n3,0,0,0,0,0,0,0,0,n3,0,0,0,0,0,0,0,0
09/04/11,14:34:18,38 33.2569 N,009 16.1587 W,141.61,97.60,3276.1,10,1,N4,2,2,1,1,1,0,0,0,N4,0,0,0,0,0,0,0,0,n4,0,0,0,0,0,0,0,0,n4,0,0,0,0,0,0,0,0
09/04/11,14:34:23,38 33.2315 N,009 15.9092 W,142.28,97.52,3299.8,11,1,N5,4,3,2,2,2,1,1,1,N5,1,1,0,0,0,0,0,0,n5,0,0,0,0,0,0,0,0,n5,0,0,0,0,0,0,0,0
09/04/11,14:34:29,38 33.2007 N,009 15.6082 W,143.20,97.58,3327.6,11,1,N6,17,16,16,16,15,15,15,14,N6,14,14,14,14,14,14,14,14,n6,9,0,0,0,0,0,0,0,n6,0,0,0,0,0,0,0,0
09/04/11,14:34:36,38 33.1630 N,009 15.2554 W,143.89,98.02,3361.2,11,1,N7,3,2,2,2,1,1,0,0,N7,0,0,0,0,0,0,0,0,n7,0,0,0,0,0,0,0,0,n7,0,0,0,0,0,0,0,0
09/04/11,14:34:42,38 33.1279 N,009 14.9522 W,144.49,98.68,3390.4,11,1,N8,9,9,8,8,7,7,7,7,N8,7,7,7,6,6,6,6,6,n8,1,1,0,0,0,0,0,0,n8,0,0,0,0,0,0,0,0
09/04/11,14:34:48,38 33.0894 N,009 14.6488 W,144.90,99.56,3419.3,11,1,N9,3,2,1,1,1,1,0,0,N9,0,0,0,0,0,0,0,0,n9,0,0,0,0,0,0,0,0,n9,0,0,0,0,0,0,0,0
09/04/11,14:34:53,38 33.0536 N,009 14.3959 W,145.35,100.57,3442.8,11,1,N0,9,8,8,7,7,7,7,7,N0,7,7,7,7,6,6,5,5,n0,0,0,0,0,0,0,0,0,n0,0,0,0,0,0,0,0,0
09/04/11,14:34:59,38 33.0059 N,009 14.0924 W,146.04,101.71,3470.0,11,1,N1,2,1,1,1,1,0,0,0,N1,0,0,0,0,0,0,0,0,n1,0,0,0,0,0,0,0,0,n1,0,0,0,0,0,0,0,0
09/04/11,14:35:06,38 32.9438 N,009 13.7382 W,146.72,103.10,3502.5,11,1,N2,3,2,1,1,1,0,0,0,N2,0,0,0,0,0,0,0,0,n2,0,0,0,0,0,0,0,0,n2,0,0,0,0,0,0,0,0
09/04/11,14:35:12,38 32.8843 N,009 13.4348 W,147.57,104.46,3529.6,11,1,N3,3,2,2,1,1,1,1,1,N3,0,0,0,0,0,0,0,0,n3,0,0,0,0,0,0,0,0,n3,0,0,0,0,0,0,0,0
09/04/11,14:35:18,38 32.8190 N,009 13.1270 W,151.83,105.03,3541.3,11,1,N4,5,5,4,4,3,3,2,2,N4,2,2,2,2,2,2,0,0,n4,0,0,0,0,0,0,0,0,n4,0,0,0,0,0,0,0,0
09/04/11,14:35:23,38 32.7579 N,009 12.8594 W,159.43,106.31,3536.1,11,1,N5,2,2,1,1,1,0,0,0,N5,0,0,0,0,0,0,0,0,n5,0,0,0,0,0,0,0,0,n5,0,0,0,0,0,0,0,0
09/04/11,14:35:29,38 32.6784 N,009 12.5271 W,164.98,107.20,3539.4,11,1,N6,3,2,2,1,1,1,0,0,N6,0,0,0,0,0,0,0,0,n6,0,0,0,0,0,0,0,0,n6,0,0,0,0,0,0,0,0
09/04/11,14:35:36,38 32.5791 N,009 12.1330 W,167.98,108.00,3554.6,11,1,N7,11,10,10,9,9,9,8,8,N7,8,8,8,8,8,8,8,8,n7,4,4,4,0,0,0,0,0,n7,0,0,0,0,0,0,0,0
09/04/11,14:35:42,38 32.4889 N,009 11.7889 W,172.02,108.55,3562.3,11,1,N8,2,2,1,1,0,0,0,0,N8,0,0,0,0,0,0,0,0,n8,0,0,0,0,0,0,0,0,n8,0,0,0,0,0,0,0,0
09/04/11,14:35:48,38 32.3944 N,009 11.4364 W,176.95,108.92,3563.2,11,1,N9,3,2,1,1,1,1,1,1,N9,0,0,0,0,0,0,0,0,n9,0,0,0,0,0,0,0,0,n9,0,0,0,0,0,0,0,0
09/04/11,14:35:53,38 32.3127 N,009 11.1351 W,181.19,109.04,3561.0,11,1,N0,12,11,11,10,10,10,9,9,N0,9,9,9,8,8,8,8,7,n0,4,0,0,0,0,0,0,0,n0,0,0,0,0,0,0,0,0
09/04/11,14:35:59,38 32.2117 N,009 10.7647 W,186.00,109.14,3558.6,11,1,N1,3,2,1,1,1,0,0,0,N1,0,0,0,0,0,0,0,0,n1,0,0,0,0,0,0,0,0,n1,0,0,0,0,0,0,0,0
09/04/11,14:36:06,38 32.0914 N,009 10.3213 W,190.85,108.94,3556.5,11,1,N2,5,4,4,3,3,3,3,3,N2,2,2,2,2,1,1,1,0,n2,0,0,0,0,0,0,0,0,n2,0,0,0,0,0,0,0,0
09/04/11,14:36:12,38 31.9875 N,009 09.9325 W,194.35,108.67,3554.6,11,1,N3,3,2,2,2,1,1,0,0,N3,0,0,0,0,0,0,0,0,n3,0,0,0,0,0,0,0,0,n3,0,0,0,0,0,0,0,0
09/04/11,14:36:18,38 31.8841 N,009 09.5368 W,197.14,108.23,3554.4,11,1,N4,4,3,3,2,2,2,1,1,N4,1,1,1,1,1,1,0,0,n4,0,0,0,0,0,0,0,0,n4,0,0,0,0,0,0,0,0
09/04/11,14:36:23,38 31.7991 N,009 09.2023 W,199.00,107.78,3555.4,11,1,N5,5,4,3,3,3,2,2,2,N5,2,2,2,1,1,1,1,0,n5,0,0,0,0,0,0,0,0,n5,0,0,0,0,0,0,0,0
09/04/11,14:36:29,38 31.6989 N,009 08.7957 W,201.33,107.21,3555.0,11,1,N6,2,2,1,1,1,0,0,0,N6,0,0,0,0,0,0,0,0,n6,0,0,0,0,0,0,0,0,n6,0,0,0,0,0,0,0,0
09/04/11,14:36:36,38 31.5842 N,009 08.3148 W,203.56,106.74,3555.0,11,1,N7,5,4,3,3,2,2,2,2,N7,2,2,2,1,1,1,1,0,n7,0,0,0,0,0,0,0,0,n7,0,0,0,0,0,0,0,0
09/04/11,14:36:42,38 31.4877 N,009 07.8973 W,205.51,106.23,3554.1,11,1,N8,19,18,17,17,17,17,17,16,N8,16,16,16,16,16,16,16,16,n8,15,12,12,8,0,0,0,0,n8,0,0,0,0,0,0,0,0
09/04/11,14:36:48,38 31.3936 N,009 07.4753 W,206.95,105.70,3554.5,11,1,N9,3,2,1,1,1,1,0,0,N9,0,0,0,0,0,0,0,0,n9,0,0,0,0,0,0,0,0,n9,0,0,0,0,0,0,0,0
09/04/11,14:36:53,38 31.3168 N,009 07.1206 W,208.23,105.31,3553.9,11,1,N0,4,3,2,2,2,1,1,1,N0,1,1,1,1,0,0,0,0,n0,0,0,0,0,0,0,0,0,n0,0,0,0,0,0,0,0,0
09/04/11,14:36:59,38 31.2268 N,009 06.6916 W,209.49,104.83,3553.6,11,1,N1,32,31,30,30,30,29,29,29,N1,29,29,29,29,29,29,29,29,n1,28,24,24,24,16,0,0,0,n1,0,0,0,0,0,0,0,0
09/04/11,14:37:06,38 31.1235 N,009 06.1873 W,210.83,104.54,3552.2,11,1,N2,3,2,2,1,1,1,1,1,N2,1,0,0,0,0,0,0,0,n2,0,0,0,0,0,0,0,0,n2,0,0,0,0,0,0,0,0
09/04/11,14:37:12,38 31.0361 N,009 05.7525 W,211.55,104.30,3551.8,11,1,N3,9,8,8,7,7,7,7,7,N3,6,6,6,6,6,6,5,5,n3,0,0,0,0,0,0,0,0,n3,0,0,0,0,0,0,0,0
09/04/11,14:37:18,38 30.9499 N,009 05.3164 W,211.97,104.06,3551.6,11,1,N4,16,15,14,14,14,14,14,13,N4,13,13,13,13,13,13,13,13,n4,4,4,4,4,0,0,0,0,n4,0,0,0,0,0,0,0,0
09/04/11,14:37:23,38 30.8786 N,009 04.9520 W,212.36,103.99,3552.6,11,1,N5,6,5,4,4,4,3,3,3,N5,3,3,3,3,3,3,3,0,n5,0,0,0,0,0,0,0,0,n5,0,0,0,0,0,0,0,0
09/04/11,14:37:29,38 30.7929 N,009 04.5137 W,213.06,103.99,3552.1,11,1,N6,8,8,7,7,7,6,6,6,N6,6,6,6,5,5,5,5,5,n6,0,0,0,0,0,0,0,0,n6,0,0,0,0,0,0,0,0
09/04/11,14:37:36,38 30.6922 N,009 04.0005 W,213.75,104.09,3551.6,11,1,N7,16,15,15,14,14,14,14,14,N7,14,13,13,13,13,13,12,12,n7,4,0,0,0,0,0,0,0,n7,0,0,0,0,0,0,0,0
09/04/11,14:37:42,38 30.6047 N,009 03.5597 W,214.44,104.26,3550.6,11,1,N8,8,8,7,7,6,6,6,6,N8,6,6,6,5,5,5,5,5,n8,0,0,0,0,0,0,0,0,n8,0,0,0,0,0,0,0,0
09/04/11,14:37:48,38 30.5152 N,009 03.1184 W,214.86,104.59,3550.2,10,1,N9,2,1,1,0,0,0,0,0,N9,0,0,0,0,0,0,0,0,n9,0,0,0,0,0,0,0,0,n9,0,0,0,0,0,0,0,0
09/04/11,14:37:53,38 30.4388 N,009 02.7506 W,215.24,104.92,3548.4,09,1,N0,2,2,1,1,1,0,0,0,N0,0,0,0,0,0,0,0,0,n0,0,0,0,0,0,0,0,0,n0,0,0,0,0,0,0,0,0
09/04/11,14:37:59,38 30.3443 N,009 02.3094 W,215.45,105.39,3547.9,08,1,N1,17,16,16,16,15,15,15,15,N1,15,14,14,14,14,14,14,14,n1,10,0,0,0,0,0,0,0,n1,0,0,0,0,0,0,0,0
09/04/11,14:38:06,38 30.2310 N,009 01.7956 W,215.67,105.86,3548.1,08,1,N2,3,3,2,2,2,2,1,1,N2,1,1,1,1,1,1,0,0,n2,0,0,0,0,0,0,0,0,n2,0,0,0,0,0,0,0,0
09/04/11,14:38:12,38 30.1310 N,009 01.3554 W,215.93,106.23,3549.7,08,1,N3,5,5,4,4,4,3,3,3,N3,3,3,3,3,3,2,1,0,n3,0,0,0,0,0,0,0,0,n3,0,0,0,0,0,0,0,0
09/04/11,14:38:18,38 30.0280 N,009 00.9152 W,216.67,106.76,3548.9,08,1,N4,8,7,7,6,6,6,6,6,N4,6,6,6,6,5,5,5,5,n4,0,0,0,0,0,0,0,0,n4,0,0,0,0,0,0,0,0
09/04/11,14:38:23,38 29.9398 N,009 00.5484 W,216.90,107.10,3549.2,10,1,N5,2,2,2,1,1,1,1,1,N5,0,0,0,0,0,0,0,0,n5,0,0,0,0,0,0,0,0,n5,0,0,0,0,0,0,0,0
09/04/11,14:38:29,38 29.8316 N,009 00.1082 W,217.62,107.43,3547.0,09,1,N6,7,7,6,6,6,6,6,5,N6,5,5,5,5,5,5,3,0,n6,0,0,0,0,0,0,0,0,n6,0,0,0,0,0,0,0,0
09/04/11,14:38:36,38 29.7035 N,008 59.5945 W,217.82,107.68,3547.1,09,1,N7,11,10,10,10,9,9,9,9,N7,9,9,9,9,9,9,9,9,n7,7,3,0,0,0,0,0,0,n7,0,0,0,0,0,0,0,0
09/04/11,14:38:42,38 29.5923 N,008 59.1540 W,218.15,107.82,3545.7,09,1,N8,4,3,3,3,2,2,2,2,N8,2,1,1,1,1,1,1,0,n8,0,0,0,0,0,0,0,0,n8,0,0,0,0,0,0,0,0
09/04/11,14:38:48,38 29.4805 N,008 58.7138 W,218.09,107.94,3546.5,09,1,N9,23,22,21,21,21,20,20,20,N9,20,20,20,20,20,19,19,19,n9,10,0,0,0,0,0,0,0,n9,0,0,0,0,0,0,0,0
09/04/11,14:38:53,38 29.3868 N,008 58.3468 W,218.32,107.95,3546.3,10,1,N0,3,2,1,1,1,1,0,0,N0,0,0,0,0,0,0,0,0,n0,0,0,0,0,0,0,0,0,n0,0,0,0,0,0,0,0,0
09/04/11,14:38:59,38 29.2749 N,008 57.9063 W,218.32,107.85,3547.6,11,1,N1,3,2,2,2,1,1,1,1,N1,1,1,1,1,0,0,0,0,n1,0,0,0,0,0,0,0,0,n1,0,0,0,0,0,0,0,0
09/04/11,14:39:06,38 29.1451 N,008 57.3913 W,218.60,107.70,3548.0,11,1,N2,4,3,3,3,2,2,2,2,N2,2,2,2,1,1,1,1,0,n2,0,0,0,0,0,0,0,0,n2,0,0,0,0,0,0,0,0
09/04/11,14:39:12,38 29.0350 N,008 56.9490 W,218.89,107.51,3546.9,11,1,N3,2,2,1,1,0,0,0,0,N3,0,0,0,0,0,0,0,0,n3,0,0,0,0,0,0,0,0,n3,0,0,0,0,0,0,0,0
09/04/11,14:39:18,38 28.9257 N,008 56.5057 W,219.00,107.34,3547.1,11,1,N4,3,2,2,1,1,1,0,0,N4,0,0,0,0,0,0,0,0,n4,0,0,0,0,0,0,0,0,n4,0,0,0,0,0,0,0,0
09/04/11,14:39:23,38 28.8356 N,008 56.1357 W,219.27,107.19,3545.4,11,1,N5,3,2,2,1,1,1,0,0,N5,0,0,0,0,0,0,0,0,n5,0,0,0,0,0,0,0,0,n5,0,0,0,0,0,0,0,0
09/04/11,14:39:29,38 28.7281 N,008 55.6915 W,218.98,107.02,3546.7,11,1,N6,23,23,22,22,22,21,21,21,N6,21,20,20,20,20,20,20,18,n6,11,8,8,8,0,0,0,0,n6,0,0,0,0,0,0,0,0
09/04/11,14:39:36,38 28.6040 N,008 55.1729 W,219.11,106.96,3546.7,11,1,N7,3,2,2,2,1,1,1,1,N7,1,1,1,0,0,0,0,0,n7,0,0,0,0,0,0,0,0,n7,0,0,0,0,0,0,0,0
09/04/11,14:39:42,38 28.4971 N,008 54.7286 W,219.09,106.98,3547.9,11,1,N8,26,25,25,24,24,24,24,23,N8,23,23,23,23,23,23,22,20,n8,19,16,16,16,0,0,0,0,n8,0,0,0,0,0,0,0,0
09/04/11,14:39:48,38 28.3912 N,008 54.2834 W,219.44,106.76,3546.8,11,1,N9,3,2,1,1,1,0,0,0,N9,0,0,0,0,0,0,0,0,n9,0,0,0,0,0,0,0,0,n9,0,0,0,0,0,0,0,0
09/04/11,14:39:53,38 28.3033 N,008 53.9121 W,219.37,106.75,3547.3,11,1,N0,6,5,5,5,4,4,4,4,N0,4,3,3,3,1,1,1,0,n0,0,0,0,0,0,0,0,0,n0,0,0,0,0,0,0,0,0
09/04/11,14:39:59,38 28.1986 N,008 53.4660 W,219.66,106.62,3546.5,11,1,N1,4,4,3,3,2,2,2,2,N1,2,1,1,1,1,1,0,0,n1,0,0,0,0,0,0,0,0,n1,0,0,0,0,0,0,0,0
09/04/11,14:40:06,38 28.0766 N,008 52.9453 W,219.54,106.57,3548.3,10,1,N2,45,44,44,43,43,43,43,43,N2,42,42,42,42,42,42,42,42,n2,39,32,32,32,16,0,0,0,n2,0,0,0,0,0,0,0,0
09/04/11,14:40:12,38 27.9720 N,008 52.4983 W,220.20,106.61,3546.7,10,1,N3,3,2,1,1,1,0,0,0,N3,0,0,0,0,0,0,0,0,n3,0,0,0,0,0,0,0,0,n3,0,0,0,0,0,0,0,0
09/04/11,14:40:18,38 27.8672 N,008 52.0507 W,220.27,106.54,3546.0,10,1,N4,2,2,1,1,1,0,0,0,N4,0,0,0,0,0,0,0,0,n4,0,0,0,0,0,0,0,0,n4,0,0,0,0,0,0,0,0
09/04/11,14:40:23,38 27.7800 N,008 51.6772 W,220.48,106.55,3546.0,10,1,N5,2,1,1,1,0,0,0,0,N5,0,0,0,0,0,0,0,0,n5,0,0,0,0,0,0,0,0,n5,0,0,0,0,0,0,0,0
09/04/11,14:40:29,38 27.6753 N,008 51.2293 W,220.40,106.56,3545.6,10,1,N6,4,3,2,2,2,1,1,1,N6,1,0,0,0,0,0,0,0,n6,0,0,0,0,0,0,0,0,n6,0,0,0,0,0,0,0,0
09/04/11,14:40:36,38 27.5527 N,008 50.7069 W,220.26,106.66,3547.1,10,1,N7,17,16,15,15,14,13,13,13,N7,13,13,13,12,12,12,12,12,n7,5,0,0,0,0,0,0,0,n7,0,0,0,0,0,0,0,0